Location: Ravensburg
(47.7866°N, 9.6124°E)
Time: 07:29:48
(UTC+02:00)

STARS - Pass Details

Date: 23 March 2026
Orbit: 575 x 588 km, 98.2° (Epoch: 15 April)

Event Time Altitude Azimuth Distance (km) Brightness Sun altitude
Rises 02:23:44 0° 15° (NNE) 2,799 ? -35.2°
Reaches altitude 10° 02:25:54 10° 18° (NNE) 1,896 ? -34.9°
Enters shadow 02:26:50 16° 19° (NNE) 1,523 ? -34.8°
